Meteo Giornale » Osservazioni meteo Stati Uniti (USA) » Laughlin Auxiliary Airfield
ore: 19:55 - Osservazioni Meteo Laughlin Auxiliary Airfield
Lat. 29° 7' N Lon. 100° 28' W Alt. 294 metri s.l.m.
35 °C
Sereno
Temp. 24 Ore
26 °C
38 °C
Est
20.3 Km/h
Dew point 18 °C
Umidità 36 %
Visibilità 10 Km
Il sole sorge alle ore 07:19
Il sole tramonta alle ore 20:04
| Data e Ora | Cielo e Fenomeni | T °C | DP °C | Um. % | Pres. hPa | Vis. km | Vento km/h | |
|---|---|---|---|---|---|---|---|---|
| Oggi h: 19:55 | Sereno | 35 | 18 | 36 | 1009 | 10 | E 20.3 | |
| Oggi h: 18:55 | Sereno | 37 | 17 | 30 | 1009 | 10 | E 22.2 | |
| Oggi h: 17:55 | Sereno | 38 | 17 | 29 | 1009 | 10 | SE 20.3 | |
| Oggi h: 16:55 | Sereno | 38 | 19 | 33 | 1010 | 10 | E/SE 24 | |
| Oggi h: 16:38 | Poco Nuvoloso | 38 | 19 | 33 | 1010 | 10 | SE 20.3 | |
| Oggi h: 15:56 | Sereno | 37 | 20 | 37 | 1011 | 10 | SE 20.3 | |
| Oggi h: 15:55 | Sereno | 37 | 20 | 37 | 1011 | 10 | SE 22.2 | |
| Oggi h: 15:37 | Sereno | 37 | 20 | 37 | 1011 | 10 | E 24 | |
| Oggi h: 14:55 | Poco Nuvoloso | 36 | 21 | 41 | 1012 | 10 | SE 25.9 | |
| Oggi h: 14:15 | Sereno | 35 | 21 | 44 | 1012 | 10 | E 18.5 | |
| Oggi h: 13:58 | Sereno | 35 | 21 | 44 | 1013 | 10 | SE 20.3 | |
| Oggi h: 13:55 | Sereno | 35 | 22 | 47 | 1013 | 10 | E 24 | |
| Oggi h: 13:48 | Poco Nuvoloso | 34 | 21 | 46 | 1013 | 10 | E 24 | |
| Oggi h: 12:55 | Sereno | 33 | 22 | 52 | 1014 | 10 | E 18.5 | |
| Oggi h: 11:55 | Poco Nuvoloso | 31 | 22 | 58 | 1015 | 10 | SE 18.5 | |
| Oggi h: 11:48 | Nuvoloso | 31 | 22 | 58 | 1015 | 10 | E/SE 14.8 | |
| Oggi h: 10:55 | Coperto | 30 | 22 | 62 | 1014 | 10 | E/SE 14.8 | |
| Oggi h: 10:40 | Molto Nuvoloso | 29 | 22 | 66 | 1014 | 10 | E 16.7 | |
| Oggi h: 10:10 | Molto Nuvoloso | 29 | 22 | 66 | 1014 | 10 | E/SE 18.5 | |
| Oggi h: 09:55 | Nuvoloso | 29 | 22 | 66 | 1014 | 10 | E/SE 22.2 | |
| Oggi h: 08:55 | Sereno | 27 | 23 | 78 | 1014 | 10 | E 20.3 | |
| Oggi h: 07:55 | Sereno | 26 | 22 | 78 | 1014 | 10 | E 16.7 | |
| Oggi h: 06:55 | Sereno | 26 | 21 | 73 | 1013 | 10 | E/SE 11.1 | |
| Oggi h: 05:55 | Sereno | 27 | 21 | 69 | 1013 | 10 | E 13 | |
| Oggi h: 04:55 | Sereno | 28 | 21 | 65 | 1012 | 10 | E/SE 18.5 | |
| Oggi h: 03:55 | Sereno | 28 | 21 | 65 | 1012 | 10 | E/SE 22.2 | |
| Oggi h: 02:55 | Sereno | 29 | 21 | 62 | 1012 | 10 | E/SE 25.9 | |
| Oggi h: 01:55 | Sereno | 30 | 21 | 58 | 1012 | 10 | E/SE 24 | |
| Oggi h: 00:55 | Sereno | 31 | 20 | 52 | 1012 | 10 | E/SE 25.9 | |
| Ieri h: 23:55 | Sereno | 32 | 18 | 43 | 1011 | 10 | E/SE 25.9 | |
| Ieri h: 22:55 | Sereno | 32 | 17 | 40 | 1011 | 10 | E 18.5 | |
| Ieri h: 21:55 | Sereno | 32 | 17 | 40 | 1011 | 10 | E 16.7 | |



